{"data":{"norad_id":66706,"intl_designator":"2025-276AS","name":"FLOCK 4H-3","alt_names":[],"object_type":"PAYLOAD","status":"ACTIVE","operator":null,"country":"US","launch_date":"2025-11-28","launch_site_code":"AFWTR","launch_vehicle":null,"mission":null,"orbit_class":"UNKNOWN","rcs_meters":null,"size_class":null,"mass_kg":null,"dimensions":null,"purposes":["earth_obs"],"wikipedia_slug":null,"has_3d_model":false,"image_url":null,"decayed_at":null,"tle_current":{"epoch":"2026-05-25T03:42:54.586944Z","epoch_age_seconds":55637,"freshness":"FRESH","line1":"1 66706U 25276AS  26145.15479846  .00005714  00000+0  27119-3 0  9998","line2":"2 66706  97.4246 219.1856 0005577  87.7408 272.4465 15.19635545 26922","mean_motion":15.19635545,"eccentricity":0.0005577,"inclination_deg":97.4246,"raan_deg":219.1856,"arg_perigee_deg":87.7408,"mean_anomaly_deg":272.4465,"bstar":0.00027119,"rev_number":2692,"period_min":94.75956289243,"perigee_km":503.1014202954,"apogee_km":510.78103655138,"semimajor_km":6885.0782284234,"source":"CELESTRAK","updated_at":"2026-05-25T13:38:13.345687Z"}}}